Livermore, CA

7:09 AM PDT on March 30, 2017 (GMT -0700)
Livermore Municipal

Weather History for KLVK - May, 2013

Change the Weather History Date:

Monday, May 27, 2013

  Actual Average Record
Temperature  
Mean Temperature 59 °F 64 °F  
Max Temperature 66 °F 77 °F 102 °F (1951)
Min Temperature 52 °F 51 °F 38 °F (1953)
Degree Days  
Heating Degree Days 6 3  
Month to date heating degree days 60 116  
Since 1 July heating degree days 2387 2738  
Cooling Degree Days 0 2  
Month to date cooling degree days 62 40  
Year to date cooling degree days 95 49  
Growing Degree Days 8 (Base 50)    
Moisture  
Dew Point 51 °F    
Average Humidity 73    
Maximum Humidity 83    
Minimum Humidity 63    
Precipitation  
Precipitation 0.01 in 0.01 in 0.39 in (1990)
Month to date precipitation 0.12 0.58  
Year to date precipitation 2.08 9.82  
Since 1 July precipitation 10.37  
Sea Level Pressure  
Sea Level Pressure 30.09 in    
Wind  
Wind Speed 10 mph (WSW)    
Max Wind Speed 17 mph    
Max Gust Speed 22 mph    
Visibility 10 miles    
Events Rain    
T = Trace of Precipitation, MM = Missing Value Source: NWS Daily Summary

Daily Weather History Graph

Daily Weather History Graph

Search for Another Location

Airport or City:

Trip Planner

Search our weather history database for the weather conditions in past years. The results will help you decide how hot, cold, wet, or windy it might be!

Date:

Astronomy

May. 27, 2013 Rise Set
Actual Time 5:49 AM PDT 8:20 PM PDT
Civil Twilight 5:18 AM PDT 8:50 PM PDT
Nautical Twilight 4:41 AM PDT 9:28 PM PDT
Astronomical Twilight 3:59 AM PDT 10:10 PM PDT
Moon 11:05 PM PDT (5/27) 8:32 AM PDT (5/27)
Length of Visible Light 15h 31m
Length of Day
14h 30m
Waning Gibbous, 90% of the Moon is Illuminated
May 27
Waning Gibbous
May 31
Last Quarter
Jun 8
New
Jun 16
First Quarter
Jun 23
Full

Hourly Weather History & Observations

Time (PDT) Temp. Dew Point Humidity Pressure Visibility Wind Dir Wind Speed Gust Speed Precip Events Conditions
12:21 AM 53.6 °F 48.2 °F 82% 30.14 in 10.0 mi West 9.2 mph - N/A   Mostly Cloudy
12:53 AM 54.0 °F 48.0 °F 80% 30.13 in 10.0 mi West 11.5 mph - N/A   Overcast
1:53 AM 55.9 °F 48.9 °F 77% 30.13 in 10.0 mi WSW 9.2 mph - N/A   Overcast
2:53 AM 55.0 °F 48.0 °F 77% 30.11 in 10.0 mi WSW 6.9 mph - N/A   Mostly Cloudy
3:10 AM 53.6 °F 48.2 °F 82% 30.11 in 10.0 mi SW 4.6 mph - N/A   Scattered Clouds
3:53 AM 54.0 °F 48.0 °F 80% 30.10 in 10.0 mi WSW 6.9 mph - N/A   Scattered Clouds
4:09 AM 53.6 °F 48.2 °F 82% 30.10 in 10.0 mi SW 8.1 mph - N/A   Mostly Cloudy
4:24 AM 53.6 °F 48.2 °F 82% 30.10 in 10.0 mi WSW 8.1 mph - N/A   Scattered Clouds
4:53 AM 54.0 °F 48.0 °F 80% 30.09 in 10.0 mi SW 8.1 mph - N/A   Scattered Clouds
5:53 AM 53.1 °F 48.0 °F 83% 30.09 in 10.0 mi WSW 6.9 mph - N/A   Clear
6:53 AM 55.0 °F 48.9 °F 80% 30.10 in 10.0 mi WSW 10.4 mph - N/A   Partly Cloudy
7:10 AM 55.4 °F 48.2 °F 77% 30.10 in 10.0 mi SW 9.2 mph - N/A   Mostly Cloudy
7:53 AM 57.9 °F 50.0 °F 75% 30.10 in 10.0 mi West 10.4 mph - N/A   Overcast
8:53 AM 60.1 °F 51.1 °F 72% 30.10 in 10.0 mi SW 10.4 mph - N/A   Overcast
9:53 AM 62.1 °F 51.1 °F 67% 30.10 in 10.0 mi West 16.1 mph - N/A   Overcast
10:53 AM 61.0 °F 53.1 °F 75% 30.09 in 10.0 mi SSW 10.4 mph - N/A   Overcast
11:53 AM 62.1 °F 52.0 °F 70% 30.10 in 10.0 mi South 12.7 mph - N/A   Overcast
12:53 PM 63.0 °F 52.0 °F 67% 30.12 in 10.0 mi WSW 9.2 mph - 0.00 in   Overcast
1:53 PM 63.0 °F 53.1 °F 70% 30.11 in 10.0 mi WSW 11.5 mph - 0.00 in Rain Light Rain
2:00 PM 62.6 °F 53.6 °F 72% 30.11 in 10.0 mi WSW 10.4 mph - 0.00 in Rain Light Rain
2:53 PM 64.9 °F 51.1 °F 61% 30.10 in 10.0 mi West 15.0 mph - 0.00 in   Overcast
3:53 PM 64.9 °F 51.1 °F 61% 30.09 in 10.0 mi West 9.2 mph - N/A   Overcast
4:00 PM 64.4 °F 51.8 °F 64% 30.09 in 10.0 mi West 11.5 mph 20.7 mph N/A   Overcast
4:53 PM 62.1 °F 53.1 °F 72% 30.09 in 10.0 mi West 12.7 mph - N/A   Overcast
5:53 PM 61.0 °F 52.0 °F 72% 30.08 in 10.0 mi WSW 9.2 mph - N/A   Overcast
6:04 PM 60.8 °F 51.8 °F 72% 30.08 in 10.0 mi West 9.2 mph - N/A   Overcast
6:33 PM 60.8 °F 51.8 °F 72% 30.07 in 10.0 mi West 9.2 mph - N/A   Overcast
6:53 PM 61.0 °F 51.1 °F 70% 30.06 in 10.0 mi WSW 9.2 mph - N/A   Overcast
7:53 PM 61.0 °F 52.0 °F 72% 30.05 in 10.0 mi SW 5.8 mph - N/A   Overcast
8:53 PM 60.1 °F 52.0 °F 75% 30.03 in 10.0 mi West 6.9 mph - N/A   Overcast
9:53 PM 59.0 °F 53.1 °F 81% 30.02 in 10.0 mi SW 6.9 mph - N/A   Overcast
10:53 PM 60.1 °F 54.0 °F 80% 30.03 in 10.0 mi WSW 10.4 mph - 0.00 in Rain Light Rain
11:53 PM 57.9 °F 55.0 °F 90% 30.00 in 10.0 mi SSW 6.9 mph - 0.01 in   Overcast